Regional Weather Roundup
Issued by NWS Boston, MA

Home | Current Version | Previous Version | Text Only | Print | Product List | Glossary On
Versions: 1 2 3 4 5 6 7 8 9 10 11 12 13 14 15 16 17 18 19 20 21 22 23 24 25 26 27 28 29 30 31 32 33 34 35 36 37 38 39 40 41 42 43 44 45 46 47 48 49 50
000
ASUS41 KBOX 211410
RWRBOX

REGIONAL WEATHER ROUNDUP
NATIONAL WEATHER SERVICE TAUNTON MA
1000 AM EDT SUN SEP 21 2014

NOTE:  "FAIR" INDICATES FEW OR NO CLOUDS BELOW 12,000 FEET WITH NO
SIGNIFICANT WEATHER AND/OR OBSTRUCTIONS TO VISIBILITY.  THE FOLLOWING
OBSERVATION LOCATIONS DO NOT REPORT PRESENT WEATHER...PROVINCETOWN...
SMITHFIELD...BLOCK ISLAND...KEENE...AND OXFORD.

MAZALL-211500-
EASTERN MASSACHUSETTS

CITY           SKY/WX    TMP DP  RH WIND       PRES   REMARKS
BOSTON         PTSUNNY   75  66  73 S9        29.91F
BEVERLY        PTSUNNY   72  64  76 SE8       29.92F
LAWRENCE       PTSUNNY   68  64  87 CALM      29.93F
BEDFORD        PTSUNNY   67  64  90 CALM      29.90F FOG
BLUE HILL        N/A     76  66  71 S16G22    29.92F
NORWOOD        CLOUDY    76  66  71 S13       29.91F
MARSHFIELD     NOT AVBL
PLYMOUTH       MOSUNNY   74  66  76 S9G17     29.94F
TAUNTON        MOSUNNY   76  67  73 S13G20    29.92F
NEW BEDFORD    MOSUNNY   74  68  81 S16       29.92F
$$

MAZALL-211500-
CAPE COD AND THE ISLANDS

CITY           SKY/WX    TMP DP  RH WIND       PRES   REMARKS
FALMOUTH       PTSUNNY   73  66  78 SE16      29.94F
HYANNIS        PTSUNNY   72  65  78 VRB7      29.94F
CHATHAM        PTSUNNY   69  63  81 VRB7G17   29.96F
PROVINCETOWN   PTSUNNY   73  64  73 S14G23    29.94F
NANTUCKET      PTSUNNY   69  65  86 SE13      29.95F
MARTHAS VNYRD  PTSUNNY   71  67  87 SE14G23   29.93F
$$

MAZALL-211500-
CENTRAL AND WESTERN MASSACHUSETTS

CITY           SKY/WX    TMP DP  RH WIND       PRES   REMARKS
WORCESTER      CLOUDY    67  66  97 S16G24    29.93F FOG
FITCHBURG      CLOUDY    67  64  90 S5        29.92F
ORANGE         LGT RAIN  66  65  96 CALM      29.91F FOG
SPRINGFIELD    DRIZZLE   64  63  97 CALM        N/A  FOG
WESTFIELD      FOG       63  62  97 CALM      29.90F VSB 1/2
NORTH ADAMS    SUNNY     73  61  65 E5        29.87F
PITTSFIELD     MOSUNNY   68  62  81 S10       29.89F
$$

RIZALL-211500-
RHODE ISLAND

CITY           SKY/WX    TMP DP  RH WIND       PRES   REMARKS
PROVIDENCE     PTSUNNY   75  67  76 SE12      29.92F
NEWPORT        MOSUNNY   75  68  78 SE15      29.92F
BLOCK ISLAND   PTSUNNY   73  66  78 SE13      29.92S
SMITHFIELD     PTSUNNY   73  64  73 S7        29.92F
WESTERLY       PTSUNNY   74  69  85 SE10      29.91F
$$

CTZALL-211500-
CONNECTICUT

CITY           SKY/WX    TMP DP  RH WIND       PRES   REMARKS
BRADLEY INTL   CLOUDY    66  63  90 CALM      29.90S FOG
HARTFORD       PTSUNNY   69  66  90 CALM      29.89F
BRIDGEPORT     PTSUNNY   73  70  90 SE6       29.88F
DANBURY        CLOUDY    67  66  97 CALM      29.89F FOG
GROTON         CLOUDY    74  69  85 SE13      29.89F
NEW HAVEN      PTSUNNY   75  68  78 S5        29.88F
CHESTER        PTSUNNY   72  70  94 S7        29.91F FOG
MERIDEN        CLOUDY    72  68  87 SW5       29.89F
WILLIMANTIC    PTSUNNY   70  67  90 MISG      29.91F
OXFORD         FOG       70  64  83 CALM      29.92S VSB 1
$$

MEZ002-015-021-024-NHZ003-005-008-011-012-014-VTZ005-008-211500-
NORTHERN NEW ENGLAND

CITY           SKY/WX    TMP DP  RH WIND       PRES   REMARKS
PORTLAND ME    CLOUDY    64  61  90 S10       29.93F
BANGOR ME      CLOUDY    62  59  90 S13       29.95F
CONCORD NH     LGT RAIN  65  63  93 S6        29.91F
MANCHESTER NH  CLOUDY    66  63  90 SW5       29.90S
NASHUA NH      PTSUNNY   66  65  97 CALM      29.92S
PORTSMOUTH NH  CLOUDY    65  63  91 S5        29.91F
JAFFREY NH     LGT RAIN  65  64  97 SW5       29.93F FOG
KEENE NH       CLOUDY    66  57  72 W3        29.90F
BURLINGTON VT  MOSUNNY   70  60  70 S20G30    29.79F
MT. WASHINGTON PTSUNNY   48  45  87 SW37G47     N/A
$$

NYZ052-076-211500-
EASTERN NEW YORK

CITY           SKY/WX    TMP DP  RH WIND       PRES   REMARKS
ALBANY         PTSUNNY   69  61  75 S15       29.85F
NEW YORK CITY  CLOUDY    71  67  87 CALM      29.87F
$$

ANZALL-211500-
MARINE OBSERVATIONS

STATION/POSITION TIME  TEMP    WIND        PRES    VSBY  WAVE
                       AIR SEA DIR/SP/G                  HT/PER
                 (UTC) (F)     (DEG/KT/KT) (MB)    (MI)  (FT/S)
BOSTON BUOY      1350   64 61  150/ 12/ 14 1013.6F         2/ 4
BUZZARDS BAY     1300          140/ 15/ 16 1014.3F
NANTUCKET SOUND  1350   69 68  140/ 10/ 12 1013.9F         1/ 3
MASS BAY-STELLWA 1304   64 60  160/ 12/ 14   N/A    1 7/8  2/ 4
ISLE OF SHOALS   1400   63     170/  6/  7 1012.9F
S OF BLOCK IS    1308      67                N/A           3/ 6
$$

......................KEY.........................
  SKY/WX - SKY CONDITION/PRESENT WEATHER
  TMP    - TEMPERATURE IN FAHRENHEIT
  DWPT   - DEWPOINT IN FAHRENHEIT
  RH     - RELATIVE HUMIDITY IN PERCENT
  WIND   - DIRECTION AND SPEED IN MPH
  PRES   - MEAN SEA LEVEL PRESSURE IN INCHES OF HG
  WCI    - WIND CHILL INDEX
  VSB    - VISIBILITY IN MILES
  HX     - HEAT INDEX
  TC     - TEMPERATURE IN CELSIUS
  VRB    - VARIABLE WIND DIRECTION
  N/A    - NOT AVAILABLE



USA.gov is the U.S. government's official web portal to all federal, state and local government web resources and services.